Home   Weather   Darlington   Past weeks

Flag for United Kingdom Past Weather in Darlington, England, United Kingdom — Yesterday and Last 2 Weeks

Now
52 °F

Passing clouds.


Feels Like: 46 °F
Forecast: 46 / 56 °F
Wind: 20 mph from South

Location: Tees-Side

Current Time: Dec 7, 2016 at 10:59:05 am

Latest Report: Dec 7, 2016 at 10:20 am


Visibility: 5 mi

Pressure: 30.07 "Hg

Humidity: 88%

Dew Point: 48 °F

Location of DarlingtonLocation

Past Weather in Darlington — Graph

°F

Darlington Temperature Yesterday

Maximum temperature yesterday: 45 °F (at 9:50 pm)
Minimum temperature yesterday: 34 °F (at 5:50 am)
Average temperature yesterday: 38 °F

High & Low Weather Summary for the Past Weeks

 TemperatureHumidityPressure
High52 °F (Dec 1, 11:50 am)100% (Nov 29, 6:20 am)30.54 "Hg (Nov 29, 6:20 am)
Low23 °F (Nov 29, 6:20 am)62% (Dec 1, 11:50 am)29.33 "Hg (Nov 22, 9:20 am)
Average40 °F85%30.30 "Hg
* Reported Nov 22 9:20 am — Dec 7 9:20 am, Darlington, Weather by CustomWeather, © 2016

Note: Actual official high and low records may vary slightly from our data, if they occured in-between our weather recording intervals... More about our weather records

Advertising

Darlington Weather History for the Previous 24 Hours

Scroll right to see more
 ConditionsComfort  
Time TempWeatherWind HumidityBarometerVisibility
9:20 am
Wed, Dec 7
50 °FPassing clouds.17 mph88%30.04 "Hg4 mi
8:50 am48 °FPassing clouds.16 mph94%30.07 "Hg4 mi
8:20 am48 °FPassing clouds.16 mph94%30.07 "Hg4 mi
7:50 am48 °FPassing clouds.13 mph94%30.07 "Hg6 mi
7:20 am48 °FPassing clouds.12 mph94%30.07 "Hg6 mi
6:50 am48 °FPassing clouds.14 mph94%30.07 "Hg6 mi
6:20 am48 °FPassing clouds.14 mph94%30.07 "Hg5 mi
5:50 am48 °FPassing clouds.13 mph87%30.07 "Hg5 mi
9:50 pm
Tue, Dec 6
45 °FLight rain. Passing clouds.14 mph93%30.18 "Hg2 mi
9:20 pm43 °FLight rain. Passing clouds.15 mph93%30.18 "Hg2 mi
8:50 pm43 °FLight rain. Passing clouds.12 mph93%30.21 "Hg2 mi
8:20 pm43 °FLight rain. Passing clouds.14 mph93%30.21 "Hg2 mi
7:50 pm41 °FLight rain. Passing clouds.13 mph100%30.21 "Hg1 mi
7:20 pm41 °FLight rain. Partly cloudy.15 mph93%30.21 "Hg2 mi
6:50 pm41 °FFog.16 mph93%30.21 "Hg2 mi
5:50 pm41 °FFog.16 mph93%30.21 "Hg2 mi
5:20 pm39 °FFog.15 mph100%30.21 "Hg1 mi
4:50 pm39 °FFog.15 mph93%30.21 "Hg1 mi
4:20 pm39 °FFog.14 mph93%30.24 "Hg1 mi
3:50 pm39 °FFog.12 mph93%30.24 "Hg1 mi
3:20 pm39 °FHaze.14 mph93%30.24 "Hg1 mi
2:50 pm39 °FHaze.12 mph93%30.24 "Hg1 mi
2:20 pm39 °FHaze.9 mph93%30.24 "Hg1 mi
1:50 pm39 °FHaze.10 mph93%30.24 "Hg1 mi
1:20 pm37 °FScattered clouds.10 mph93%30.24 "Hg1 mi
12:50 pm37 °FScattered clouds.12 mph93%30.27 "Hg2 mi
12:20 pm37 °FScattered clouds.14 mph93%30.27 "Hg2 mi
11:50 am39 °FHaze.13 mph87%30.27 "Hg2 mi
11:20 am39 °FHaze.15 mph87%30.27 "Hg2 mi
10:50 am37 °FFog.14 mph93%30.30 "Hg1 mi
10:20 am37 °FFog.9 mph93%30.30 "Hg1 mi
Weather by CustomWeather, © 2016

See weather overviewHow to use our weather pages